Location: Unspecified
(0.0000°N, 0.0000°E)
Time: 08:57:00
(UTC+00:00)

O/OREOS (USA 219) - Pass Details

Date: 26 May 2021
Orbit: 621 x 646 km, 72.0° (Epoch: 22 May)

Event Time Altitude Azimuth Distance (km) Brightness Sun altitude
Exits shadow 03:34:36 11° 3° (N) 1,947 ? -32.9°
Drops below altitude 10° 03:34:43 10° 3° (N) 1,995 ? -32.9°
Sets 03:36:58 0° 8° (N) 2,887 ? -32.4°
